Satellite-Ground Cal/Val Site Overpasses Predictions

Prediction of Satellite NPP Overpassing Cal/Val Site: Antarctic Dome C

Ground Cal/Val Site Location: Latitude: -75.10, Longitude: 123.35; Satellite-Ground Site NADIR distance within 100 km.

Table of predicted overpasses for the next 14.0 days since TLE Epoch: 3/1/2025
Interval Starting Time Ending Time Minimum Distance Time Minimum Distance (km)
1 03/02/2025 15:08:27 03/02/2025 15:08:28 03/02/2025 15:08:27 99.78
2 03/03/2025 14:49:21 03/03/2025 14:49:50 03/03/2025 14:49:36 11.87
3 03/05/2025 07:32:10 03/05/2025 07:32:39 03/05/2025 07:32:24 1.75
4 03/08/2025 14:55:32 03/08/2025 14:56:01 03/08/2025 14:55:47 24.12
5 03/09/2025 14:36:49 03/09/2025 14:37:04 03/09/2025 14:36:57 83.29
6 03/10/2025 07:38:20 03/10/2025 07:38:47 03/10/2025 07:38:34 33.89
7 03/11/2025 07:19:34 03/11/2025 07:19:52 03/11/2025 07:19:43 76.41
8 03/13/2025 15:01:45 03/13/2025 15:02:08 03/13/2025 15:01:56 60.07
